Flag for U.S.A. Weather past 2 weeks in Spartanburg, South Carolina, U.S.A.

Now
82 °F

Sunny.


Feels Like: 82 °F
Forecast: 61 / 86 °F
Wind: No wind

Location: Spartanburg Memorial

Current Time: Aug 29, 2015 at 1:42:26 PM

Latest Report: Aug 29, 2015 at 1:15 PM


Visibility: 10 mi

Pressure: 30.23 "Hg

Humidity: 45%

Dew point: 59 °F

Location of SpartanburgLocation

Historic Weather in Spartanburg — Graph

°F

Spartanburg temperature yesterday

Maximum temperature yesterday: 88 °F (at 3:15 PM)
Minimum temperature yesterday: 66 °F (at 5:55 AM)
Average temperature yesterday: 76 °F

Past Weeks' High & Low Weather Summary

 TemperatureHumidityPressure
High91 °F (Aug 16, 3:55 PM)100% (Aug 24, 2:15 AM)30.25 "Hg (Aug 24, 2:15 AM)
Low63 °F (Aug 29, 4:55 AM)29% (Aug 28, 6:15 PM)29.86 "Hg (Aug 25, 5:35 PM)
Average78 °F69%30.05 "Hg
* Reported Aug 14 12:15 PM — Aug 29 12:15 PM, Spartanburg, Weather by CustomWeather, © 2015

Note: Actual official high and low records may vary slightly from our data, if they occured in-between our weather recording intervals... More about our weather records

Advertising

Spartanburg weather history for previous 24 hours

 ConditionsComfort  
Time TempWeatherWind HumidityBarometerVisibility
12:15 PM
Sat, Aug 29
81 °FSunny.No wind51%30.24 "Hg10 mi
11:35 AM79 °FSunny.No wind58%30.25 "Hg7 mi
11:15 AM79 °FSunny.No wind54%30.25 "Hg7 mi
10:35 AM75 °FSunny.No wind61%30.25 "Hg10 mi
10:15 AM73 °FSunny.No wind65%30.25 "Hg10 mi
9:35 AM72 °FSunny.No wind73%30.24 "Hg10 mi
9:15 AM70 °FSunny.3 mph73%30.23 "Hg10 mi
8:55 AM70 °FSunny.No wind73%30.23 "Hg10 mi
8:35 AM68 °FSunny.No wind78%30.23 "Hg10 mi
8:15 AM68 °FSunny.No wind78%30.23 "Hg10 mi
7:55 AM64 °FClear.No wind88%30.23 "Hg10 mi
7:35 AM64 °FClear.No wind83%30.22 "Hg10 mi
7:15 AM64 °FClear.No wind83%30.21 "Hg10 mi
6:55 AM64 °FClear.3 mph83%30.21 "Hg10 mi
6:15 AM63 °FClear.No wind88%30.20 "Hg10 mi
5:55 AM63 °FClear.No wind88%30.20 "Hg10 mi
5:35 AM63 °FClear.No wind88%30.19 "Hg10 mi
5:15 AM63 °FClear.No wind88%30.19 "Hg10 mi
4:55 AM63 °FClear.No wind88%30.19 "Hg10 mi
3:35 AM64 °FClear.No wind83%30.19 "Hg10 mi
3:15 AM66 °FClear.No wind78%30.19 "Hg10 mi
2:55 AM64 °FClear.No wind83%30.19 "Hg10 mi
2:15 AM66 °FClear.No wind78%30.20 "Hg10 mi
1:55 AM66 °FClear.No wind83%30.20 "Hg10 mi
1:35 AM68 °FClear.No wind78%30.20 "Hg10 mi
1:15 AM68 °FClear.No wind78%30.20 "Hg10 mi
12:35 AM68 °FClear.No wind78%30.20 "Hg10 mi
12:15 AM68 °FClear.No wind78%30.20 "Hg10 mi
11:55 PM
Fri, Aug 28
70 °FClear.No wind73%30.20 "Hg10 mi
11:15 PM70 °FClear.No wind73%30.20 "Hg10 mi
10:35 PM72 °FClear.No wind65%30.18 "Hg10 mi
10:15 PM72 °FClear.No wind65%30.18 "Hg10 mi
9:55 PM72 °FClear.No wind65%30.17 "Hg10 mi
9:15 PM73 °FClear.No wind61%30.16 "Hg10 mi
8:55 PM73 °FSunny.No wind61%30.15 "Hg10 mi
8:35 PM77 °FSunny.No wind57%30.13 "Hg10 mi
8:15 PM79 °FSunny.No wind48%30.13 "Hg10 mi
7:55 PM81 °FSunny.No wind42%30.11 "Hg10 mi
7:35 PM82 °FSunny.No wind40%30.11 "Hg10 mi
7:15 PM84 °FSunny.No wind35%30.11 "Hg10 mi
6:35 PM88 °FSunny.6 mph29%30.11 "Hg10 mi
6:15 PM88 °FSunny.3 mph29%30.11 "Hg10 mi
5:35 PM88 °FScattered clouds.No wind31%30.11 "Hg10 mi
5:15 PM86 °FScattered clouds.6 mph33%30.12 "Hg10 mi
4:35 PM86 °FBroken clouds.6 mph31%30.13 "Hg10 mi
4:15 PM88 °FPartly sunny.7 mph31%30.13 "Hg10 mi
3:55 PM88 °FScattered clouds.No wind31%30.13 "Hg10 mi
3:35 PM88 °FSunny.6 mph31%30.14 "Hg10 mi
3:15 PM88 °FScattered clouds.5 mph33%30.16 "Hg10 mi
2:55 PM86 °FScattered clouds.No wind35%30.16 "Hg10 mi
2:35 PM86 °FSunny.No wind35%30.17 "Hg10 mi
2:15 PM84 °FSunny.7 mph37%30.18 "Hg10 mi
1:55 PM86 °FSunny.No wind38%30.18 "Hg10 mi
1:35 PM84 °FSunny.7 mph43%30.19 "Hg10 mi
1:15 PM82 °FSunny.7 mph45%30.20 "Hg10 mi
Weather by CustomWeather, © 2015

See weather overviewHow to use our weather pages